Time,TemperatureF,DewpointF,PressureIn,WindDirection,WindDirectionDegrees,WindSpeedMPH,WindSpeedGustMPH,Humidity,HourlyPrecipIn,Conditions,Clouds,dailyrainin,SoftwareType,DateUTC
2013-04-19 00:01:00,69.6,57.8,29.50,WNW,284,0.0,6.0,66,0.00,,---,0.00,VWS V13.01,2013-04-19 04:01:00,
2013-04-19 00:02:00,69.6,57.8,29.50,WNW,282,1.0,6.0,66,0.00,,---,0.00,VWS V13.01,2013-04-19 04:02:00,
2013-04-19 00:04:00,69.6,57.3,29.50,West,277,0.0,8.0,65,0.00,,---,0.00,VWS V13.01,2013-04-19 04:04:00,
2013-04-19 00:09:00,69.5,57.7,29.50,West,268,4.0,14.0,66,0.00,,---,0.00,VWS V13.01,2013-04-19 04:09:00,
2013-04-19 00:14:00,69.4,57.6,29.49,WSW,244,0.0,14.0,66,0.00,,---,0.00,VWS V13.01,2013-04-19 04:14:00,
2013-04-19 00:20:00,69.4,57.6,29.49,WNW,295,8.0,14.0,66,0.00,,---,0.00,VWS V13.01,2013-04-19 04:20:00,
2013-04-19 00:25:00,69.4,57.1,29.49,SSE,163,0.0,16.0,65,0.00,,---,0.00,VWS V13.01,2013-04-19 04:25:00,
2013-04-19 00:30:00,69.3,57.5,29.49,NW,326,6.0,16.0,66,0.00,,---,0.00,VWS V13.01,2013-04-19 04:30:00,
2013-04-19 00:35:00,69.3,57.0,29.48,SE,137,5.0,11.0,65,0.00,,---,0.00,VWS V13.01,2013-04-19 04:35:00,
2013-04-19 00:40:00,69.2,57.4,29.48,NE,40,0.0,11.0,66,0.00,,---,0.00,VWS V13.01,2013-04-19 04:40:00,
2013-04-19 00:45:00,69.1,57.3,29.48,East,98,3.0,12.0,66,0.00,,---,0.00,VWS V13.01,2013-04-19 04:45:00,
2013-04-19 00:50:00,69.0,57.2,29.48,WNW,300,8.0,13.0,66,0.00,,---,0.00,VWS V13.01,2013-04-19 04:50:00,
2013-04-19 00:55:00,68.8,57.4,29.47,WNW,292,6.0,13.0,67,0.00,,---,0.00,VWS V13.01,2013-04-19 04:55:00,
2013-04-19 01:00:00,68.7,57.3,29.47,WSW,250,4.0,13.0,67,0.00,,---,0.00,VWS V13.01,2013-04-19 05:00:00,
2013-04-19 01:05:00,68.6,57.2,29.47,NW,319,12.0,13.0,67,0.00,,---,0.00,VWS V13.01,2013-04-19 05:05:00,
2013-04-19 01:10:00,68.4,57.0,29.47,South,188,0.0,13.0,67,0.00,,---,0.00,VWS V13.01,2013-04-19 05:10:00,
2013-04-19 01:15:00,68.2,57.2,29.47,NW,309,14.0,14.0,68,0.00,,---,0.00,VWS V13.01,2013-04-19 05:15:00,
2013-04-19 01:20:00,68.3,56.9,29.46,SSE,158,0.0,19.0,67,0.00,,---,0.00,VWS V13.01,2013-04-19 05:20:00,
2013-04-19 01:25:00,68.3,56.9,29.46,NW,311,6.0,19.0,67,0.00,,---,0.00,VWS V13.01,2013-04-19 05:25:00,
2013-04-19 01:30:00,67.9,57.0,29.45,West,272,6.0,7.0,68,0.00,,---,0.00,VWS V13.01,2013-04-19 05:30:00,
2013-04-19 01:35:00,67.7,56.8,29.45,NNW,329,6.0,9.0,68,0.00,,---,0.00,VWS V13.01,2013-04-19 05:35:00,
2013-04-19 01:40:00,67.6,57.1,29.45,West,273,1.0,9.0,69,0.00,,---,0.00,VWS V13.01,2013-04-19 05:40:00,
2013-04-19 01:46:00,67.6,57.1,29.44,WSW,256,0.0,13.0,69,0.00,,---,0.00,VWS V13.01,2013-04-19 05:46:00,
2013-04-19 01:51:00,67.5,57.0,29.43,West,280,0.0,13.0,69,0.00,,---,0.00,VWS V13.01,2013-04-19 05:51:00,
2013-04-19 01:56:00,67.2,57.1,29.43,West,263,1.0,13.0,70,0.00,,---,0.00,VWS V13.01,2013-04-19 05:56:00,
2013-04-19 02:01:00,67.2,57.1,29.42,SW,217,6.0,9.0,70,0.00,,---,0.00,VWS V13.01,2013-04-19 06:01:00,
2013-04-19 02:06:00,67.2,57.1,29.42,WSW,246,6.0,11.0,70,0.00,,---,0.00,VWS V13.01,2013-04-19 06:06:00,
2013-04-19 02:11:00,67.0,56.9,29.42,West,278,7.0,11.0,70,0.00,,---,0.00,VWS V13.01,2013-04-19 06:11:00,
2013-04-19 02:16:00,66.9,56.8,29.41,NW,317,7.0,11.0,70,0.00,,---,0.00,VWS V13.01,2013-04-19 06:16:00,
2013-04-19 02:21:00,67.0,56.9,29.42,West,277,1.0,11.0,70,0.00,,---,0.00,VWS V13.01,2013-04-19 06:21:00,
2013-04-19 02:26:00,66.9,56.8,29.42,NW,317,6.0,11.0,70,0.00,,---,0.00,VWS V13.01,2013-04-19 06:26:00,
2013-04-19 02:31:00,66.7,56.6,29.42,NW,308,0.0,5.0,70,0.00,,---,0.00,VWS V13.01,2013-04-19 06:31:00,
2013-04-19 02:36:00,66.8,56.7,29.41,WSW,248,0.0,8.0,70,0.00,,---,0.00,VWS V13.01,2013-04-19 06:36:00,
2013-04-19 02:41:00,66.8,56.7,29.41,WNW,290,0.0,8.0,70,0.00,,---,0.00,VWS V13.01,2013-04-19 06:41:00,
2013-04-19 02:46:00,66.6,56.5,29.40,WNW,291,2.0,8.0,70,0.00,,---,0.00,VWS V13.01,2013-04-19 06:46:00,
2013-04-19 02:51:00,66.5,56.4,29.40,West,267,0.0,8.0,70,0.00,,---,0.00,VWS V13.01,2013-04-19 06:51:00,
2013-04-19 02:56:00,66.4,56.3,29.39,West,271,0.0,8.0,70,0.00,,---,0.00,VWS V13.01,2013-04-19 06:56:00,
2013-04-19 03:01:00,66.5,56.4,29.39,SE,139,0.0,1.0,70,0.00,,---,0.00,VWS V13.01,2013-04-19 07:01:00,
2013-04-19 03:06:00,66.4,56.7,29.39,NW,306,0.0,8.0,71,0.00,,---,0.00,VWS V13.01,2013-04-19 07:06:00,
2013-04-19 03:12:00,66.0,56.3,29.39,North,350,0.0,8.0,71,0.00,,---,0.00,VWS V13.01,2013-04-19 07:12:00,
2013-04-19 03:17:00,65.8,56.2,29.38,SW,217,7.0,8.0,71,0.00,,---,0.00,VWS V13.01,2013-04-19 07:17:00,
2013-04-19 03:22:00,66.1,56.0,29.38,West,270,0.0,12.0,70,0.00,,---,0.00,VWS V13.01,2013-04-19 07:22:00,
2013-04-19 03:27:00,66.2,56.1,29.38,ESE,102,2.0,12.0,70,0.00,,---,0.00,VWS V13.01,2013-04-19 07:27:00,
2013-04-19 03:32:00,66.0,56.0,29.38,NW,325,0.0,6.0,70,0.00,,---,0.00,VWS V13.01,2013-04-19 07:32:00,
2013-04-19 03:37:00,66.0,56.0,29.38,NW,322,0.0,10.0,70,0.00,,---,0.00,VWS V13.01,2013-04-19 07:37:00,
2013-04-19 03:42:00,65.9,55.5,29.37,West,272,2.0,10.0,69,0.00,,---,0.00,VWS V13.01,2013-04-19 07:42:00,
2013-04-19 03:47:00,65.8,55.8,29.37,West,273,0.0,10.0,70,0.00,,---,0.00,VWS V13.01,2013-04-19 07:47:00,
2013-04-19 03:52:00,65.8,55.8,29.37,West,268,6.0,13.0,70,0.00,,---,0.00,VWS V13.01,2013-04-19 07:52:00,
2013-04-19 03:57:00,65.9,55.5,29.36,NNW,330,0.0,13.0,69,0.00,,---,0.00,VWS V13.01,2013-04-19 07:57:00,
2013-04-19 04:02:00,65.7,55.3,29.36,SW,227,6.0,9.0,69,0.00,,---,0.00,VWS V13.01,2013-04-19 08:02:00,
2013-04-19 04:07:00,65.6,55.6,29.36,West,277,6.0,9.0,70,0.00,,---,0.00,VWS V13.01,2013-04-19 08:07:00,
2013-04-19 04:12:00,65.4,55.4,29.35,WSW,238,6.0,12.0,70,0.00,,---,0.00,VWS V13.01,2013-04-19 08:12:00,
2013-04-19 04:17:00,65.5,55.1,29.35,WSW,246,0.0,12.0,69,0.00,,---,0.00,VWS V13.01,2013-04-19 08:17:00,
2013-04-19 04:22:00,65.4,55.4,29.35,West,276,6.0,12.0,70,0.00,,---,0.00,VWS V13.01,2013-04-19 08:22:00,
2013-04-19 04:27:00,65.3,55.3,29.35,West,279,0.0,13.0,70,0.00,,---,0.00,VWS V13.01,2013-04-19 08:27:00,
2013-04-19 04:32:00,65.2,55.2,29.35,WNW,296,5.0,10.0,70,0.00,,---,0.00,VWS V13.01,2013-04-19 08:32:00,
2013-04-19 04:38:00,65.1,55.1,29.35,SSE,148,0.0,12.0,70,0.00,,---,0.00,VWS V13.01,2013-04-19 08:38:00,
2013-04-19 04:43:00,65.2,55.2,29.35,West,272,10.0,13.0,70,0.00,,---,0.00,VWS V13.01,2013-04-19 08:43:00,
2013-04-19 04:48:00,65.1,55.1,29.34,NW,315,5.0,13.0,70,0.00,,---,0.00,VWS V13.01,2013-04-19 08:48:00,
2013-04-19 04:53:00,65.1,55.1,29.34,ENE,66,8.0,13.0,70,0.00,,---,0.00,VWS V13.01,2013-04-19 08:53:00,
2013-04-19 04:58:00,65.1,55.1,29.34,ENE,60,0.0,13.0,70,0.00,,---,0.00,VWS V13.01,2013-04-19 08:58:00,
2013-04-19 05:03:00,65.1,55.1,29.34,NW,306,0.0,10.0,70,0.00,,---,0.00,VWS V13.01,2013-04-19 09:03:00,
2013-04-19 05:08:00,65.2,55.2,29.34,NNE,26,0.0,11.0,70,0.00,,---,0.00,VWS V13.01,2013-04-19 09:08:00,
2013-04-19 05:13:00,65.1,55.1,29.33,NNW,329,0.0,11.0,70,0.00,,---,0.00,VWS V13.01,2013-04-19 09:13:00,
2013-04-19 05:18:00,64.8,54.8,29.33,WNW,291,5.0,11.0,70,0.00,,---,0.00,VWS V13.01,2013-04-19 09:18:00,
2013-04-19 05:23:00,64.8,54.8,29.33,NW,311,0.0,11.0,70,0.00,,---,0.00,VWS V13.01,2013-04-19 09:23:00,
2013-04-19 05:28:00,64.8,54.8,29.33,WNW,300,7.0,11.0,70,0.00,,---,0.00,VWS V13.01,2013-04-19 09:28:00,
2013-04-19 05:33:00,64.7,54.7,29.33,NW,309,1.0,7.0,70,0.00,,---,0.00,VWS V13.01,2013-04-19 09:33:00,
2013-04-19 05:38:00,64.4,54.8,29.33,WNW,296,0.0,7.0,71,0.00,,---,0.00,VWS V13.01,2013-04-19 09:38:00,
2013-04-19 05:43:00,64.2,54.6,29.33,East,99,0.0,9.0,71,0.00,,---,0.00,VWS V13.01,2013-04-19 09:43:00,
2013-04-19 05:48:00,64.5,54.9,29.32,NW,314,0.0,9.0,71,0.00,,---,0.00,VWS V13.01,2013-04-19 09:48:00,
2013-04-19 05:53:00,64.7,54.7,29.32,SE,145,11.0,11.0,70,0.00,,---,0.00,VWS V13.01,2013-04-19 09:53:00,
2013-04-19 05:58:00,64.9,54.9,29.32,West,262,3.0,14.0,70,0.00,,---,0.00,VWS V13.01,2013-04-19 09:58:00,
2013-04-19 06:04:00,64.9,54.9,29.31,WSW,240,0.0,7.0,70,0.00,,---,0.00,VWS V13.01,2013-04-19 10:04:00,
2013-04-19 06:09:00,64.9,54.9,29.31,North,360,5.0,9.0,70,0.00,,---,0.00,VWS V13.01,2013-04-19 10:09:00,
2013-04-19 06:14:00,64.7,54.7,29.31,WSW,249,4.0,9.0,70,0.00,,---,0.00,VWS V13.01,2013-04-19 10:14:00,
2013-04-19 06:19:00,64.7,55.1,29.31,SSE,164,0.0,9.0,71,0.00,,---,0.00,VWS V13.01,2013-04-19 10:19:00,
2013-04-19 06:24:00,64.8,54.8,29.31,NNW,341,5.0,9.0,70,0.00,,---,0.00,VWS V13.01,2013-04-19 10:24:00,
2013-04-19 06:29:00,64.9,55.3,29.31,WNW,288,1.0,18.0,71,0.00,,---,0.00,VWS V13.01,2013-04-19 10:29:00,
2013-04-19 06:34:00,64.9,54.9,29.31,WNW,284,0.0,12.0,70,0.00,,---,0.00,VWS V13.01,2013-04-19 10:34:00,
2013-04-19 06:39:00,64.9,54.9,29.31,WSW,257,5.0,14.0,70,0.00,,---,0.00,VWS V13.01,2013-04-19 10:39:00,
2013-04-19 06:44:00,65.0,55.0,29.31,WNW,298,0.0,15.0,70,0.00,,---,0.00,VWS V13.01,2013-04-19 10:44:00,
2013-04-19 06:49:00,65.1,55.1,29.30,SE,124,0.0,15.0,70,0.00,,---,0.00,VWS V13.01,2013-04-19 10:49:00,
2013-04-19 06:54:00,65.2,55.2,29.30,WNW,302,7.0,15.0,70,0.00,,---,0.00,VWS V13.01,2013-04-19 10:54:00,
2013-04-19 06:59:00,65.0,55.4,29.29,NNW,327,5.0,15.0,71,0.00,,---,0.00,VWS V13.01,2013-04-19 10:59:00,
2013-04-19 07:04:00,64.8,55.6,29.30,NNE,31,0.0,9.0,72,0.00,,---,0.00,VWS V13.01,2013-04-19 11:04:00,
2013-04-19 07:09:00,64.7,55.5,29.30,WNW,302,6.0,15.0,72,0.00,,---,0.00,VWS V13.01,2013-04-19 11:09:00,
2013-04-19 07:14:00,65.0,55.4,29.28,NE,44,5.0,15.0,71,0.00,,---,0.00,VWS V13.01,2013-04-19 11:14:00,
2013-04-19 07:19:00,65.2,55.6,29.28,ENE,63,0.0,15.0,71,0.00,,---,0.00,VWS V13.01,2013-04-19 11:19:00,
2013-04-19 07:25:00,65.3,55.7,29.29,West,279,0.0,15.0,71,0.00,,---,0.00,VWS V13.01,2013-04-19 11:25:00,
2013-04-19 07:30:00,65.2,55.6,29.28,NNW,338,2.0,15.0,71,0.00,,---,0.00,VWS V13.01,2013-04-19 11:30:00,
2013-04-19 07:35:00,65.2,56.0,29.28,WNW,288,3.0,10.0,72,0.00,,---,0.00,VWS V13.01,2013-04-19 11:35:00,
2013-04-19 07:40:00,65.3,55.7,29.28,NW,325,0.0,11.0,71,0.00,,---,0.00,VWS V13.01,2013-04-19 11:40:00,
2013-04-19 07:45:00,65.6,56.0,29.28,North,355,0.0,11.0,71,0.00,,---,0.00,VWS V13.01,2013-04-19 11:45:00,
2013-04-19 07:50:00,65.8,56.2,29.28,South,180,6.0,20.0,71,0.00,,---,0.00,VWS V13.01,2013-04-19 11:50:00,
2013-04-19 07:55:00,66.0,56.3,29.27,SE,128,0.0,20.0,71,0.00,,---,0.00,VWS V13.01,2013-04-19 11:55:00,
2013-04-19 08:00:00,66.2,56.1,29.27,SSW,195,0.0,22.0,70,0.00,,---,0.00,VWS V13.01,2013-04-19 12:00:00,
2013-04-19 08:05:00,66.3,56.2,29.27,NW,319,7.0,8.0,70,0.00,,---,0.00,VWS V13.01,2013-04-19 12:05:00,
2013-04-19 08:10:00,66.4,56.3,29.26,SSE,168,5.0,13.0,70,0.00,,---,0.00,VWS V13.01,2013-04-19 12:10:00,
2013-04-19 08:15:00,66.6,56.5,29.25,NNW,334,8.0,13.0,70,0.00,,---,0.00,VWS V13.01,2013-04-19 12:15:00,
2013-04-19 08:20:00,66.8,56.7,29.24,East,79,7.0,22.0,70,0.00,,---,0.00,VWS V13.01,2013-04-19 12:20:00,
2013-04-19 08:25:00,67.0,56.5,29.25,West,259,5.0,22.0,69,0.00,,---,0.00,VWS V13.01,2013-04-19 12:25:00,
2013-04-19 08:30:00,67.0,56.5,29.23,ENE,57,9.0,10.0,69,0.00,,---,0.00,VWS V13.01,2013-04-19 12:30:00,
2013-04-19 08:36:00,67.0,56.9,29.24,WSW,250,7.0,21.0,70,0.00,,---,0.00,VWS V13.01,2013-04-19 12:36:00,
2013-04-19 08:41:00,67.1,57.0,29.24,NE,46,9.0,21.0,70,0.00,,---,0.00,VWS V13.01,2013-04-19 12:41:00,
2013-04-19 08:46:00,67.1,56.6,29.23,West,268,1.0,21.0,69,0.00,,---,0.00,VWS V13.01,2013-04-19 12:46:00,
2013-04-19 08:51:00,67.3,56.8,29.23,WSW,242,14.0,23.0,69,0.00,,---,0.00,VWS V13.01,2013-04-19 12:51:00,
2013-04-19 08:56:00,67.6,57.1,29.24,ESE,122,4.0,23.0,69,0.00,,---,0.00,VWS V13.01,2013-04-19 12:56:00,
2013-04-19 09:01:00,67.6,57.5,29.23,WNW,294,6.0,6.0,70,0.00,,---,0.00,VWS V13.01,2013-04-19 13:01:00,
2013-04-19 09:06:00,67.7,57.2,29.22,East,89,4.0,13.0,69,0.00,,---,0.00,VWS V13.01,2013-04-19 13:06:00,
2013-04-19 09:11:00,67.8,57.3,29.22,SW,229,6.0,13.0,69,0.00,,---,0.00,VWS V13.01,2013-04-19 13:11:00,
2013-04-19 09:16:00,67.9,57.0,29.22,South,183,9.0,22.0,68,0.00,,---,0.00,VWS V13.01,2013-04-19 13:16:00,
2013-04-19 09:21:00,67.8,57.3,29.21,NE,47,5.0,22.0,69,0.00,,---,0.00,VWS V13.01,2013-04-19 13:21:00,
2013-04-19 09:26:00,67.8,57.3,29.21,NNW,331,1.0,22.0,69,0.00,,---,0.00,VWS V13.01,2013-04-19 13:26:00,
2013-04-19 09:31:00,68.0,57.5,29.21,West,269,3.0,10.0,69,0.00,,---,0.00,VWS V13.01,2013-04-19 13:31:00,
2013-04-19 09:36:00,68.1,57.2,29.21,NNW,329,8.0,19.0,68,0.00,,---,0.00,VWS V13.01,2013-04-19 13:36:00,
2013-04-19 09:41:00,68.0,57.5,29.21,NNW,330,3.0,19.0,69,0.00,,---,0.00,VWS V13.01,2013-04-19 13:41:00,
2013-04-19 09:46:00,67.8,57.3,29.20,WNW,284,2.0,19.0,69,0.00,,---,0.00,VWS V13.01,2013-04-19 13:46:00,
2013-04-19 09:52:00,67.6,57.9,29.19,West,274,1.0,19.0,71,0.00,,---,0.00,VWS V13.01,2013-04-19 13:52:00,
2013-04-19 09:57:00,67.3,57.6,29.20,WNW,300,7.0,19.0,71,0.00,,---,0.00,VWS V13.01,2013-04-19 13:57:00,
2013-04-19 10:02:00,67.0,57.7,29.19,WSW,248,7.0,9.0,72,0.00,,---,0.00,VWS V13.01,2013-04-19 14:02:00,
2013-04-19 10:07:00,66.7,57.4,29.18,NNE,15,2.0,20.0,72,0.00,,---,0.00,VWS V13.01,2013-04-19 14:07:00,
2013-04-19 10:12:00,66.5,57.6,29.19,ESE,114,0.0,20.0,73,0.00,,---,0.00,VWS V13.01,2013-04-19 14:12:00,
2013-04-19 10:17:00,66.4,57.9,29.18,West,277,0.0,20.0,74,0.00,,---,0.00,VWS V13.01,2013-04-19 14:17:00,
2013-04-19 10:22:00,66.4,58.2,29.18,WNW,287,0.0,20.0,75,0.00,,---,0.00,VWS V13.01,2013-04-19 14:22:00,
2013-04-19 10:27:00,66.4,58.2,29.18,WSW,246,10.0,20.0,75,0.00,,---,0.00,VWS V13.01,2013-04-19 14:27:00,
2013-04-19 10:32:00,66.3,58.2,29.18,NE,55,5.0,10.0,75,0.00,,---,0.00,VWS V13.01,2013-04-19 14:32:00,
2013-04-19 10:37:00,66.2,58.0,29.17,NW,319,0.0,10.0,75,0.00,,---,0.00,VWS V13.01,2013-04-19 14:37:00,
2013-04-19 10:42:00,66.0,58.2,29.17,WNW,296,10.0,15.0,76,0.00,,---,0.00,VWS V13.01,2013-04-19 14:42:00,
2013-04-19 10:47:00,65.8,58.4,29.18,WNW,289,7.0,15.0,77,0.00,,---,0.00,VWS V13.01,2013-04-19 14:47:00,
2013-04-19 10:52:00,65.5,58.5,29.18,West,281,6.0,15.0,78,0.01,,---,0.01,VWS V13.01,2013-04-19 14:52:00,
2013-04-19 10:57:00,65.3,58.3,29.17,West,269,4.0,19.0,78,0.01,,---,0.01,VWS V13.01,2013-04-19 14:57:00,
2013-04-19 11:03:00,65.4,58.4,29.17,SSW,207,2.0,18.0,78,0.01,,---,0.01,VWS V13.01,2013-04-19 15:03:00,
2013-04-19 11:08:00,65.4,58.4,29.18,ESE,105,5.0,18.0,78,0.01,,---,0.01,VWS V13.01,2013-04-19 15:08:00,
2013-04-19 11:13:00,65.4,58.7,29.17,ENE,57,0.0,18.0,79,0.01,,---,0.01,VWS V13.01,2013-04-19 15:13:00,
2013-04-19 11:18:00,65.4,58.7,29.17,SW,220,2.0,18.0,79,0.01,,---,0.01,VWS V13.01,2013-04-19 15:18:00,
2013-04-19 11:23:00,65.2,58.9,29.17,WSW,241,0.0,18.0,80,0.01,,---,0.01,VWS V13.01,2013-04-19 15:23:00,
2013-04-19 11:28:00,65.0,58.7,29.18,ESE,119,0.0,21.0,80,0.01,,---,0.01,VWS V13.01,2013-04-19 15:28:00,
2013-04-19 11:33:00,64.8,58.8,29.18,NW,313,8.0,13.0,81,0.01,,---,0.01,VWS V13.01,2013-04-19 15:33:00,
2013-04-19 11:38:00,64.8,58.8,29.17,North,355,0.0,14.0,81,0.01,,---,0.01,VWS V13.01,2013-04-19 15:38:00,
2013-04-19 11:43:00,64.8,58.8,29.16,WSW,254,2.0,14.0,81,0.01,,---,0.01,VWS V13.01,2013-04-19 15:43:00,
2013-04-19 11:48:00,64.5,58.9,29.17,NNW,341,4.0,19.0,82,0.01,,---,0.01,VWS V13.01,2013-04-19 15:48:00,
2013-04-19 11:53:00,64.3,59.0,29.16,WNW,296,5.0,19.0,83,0.02,,---,0.02,VWS V13.01,2013-04-19 15:53:00,
2013-04-19 11:58:00,64.2,59.3,29.16,WSW,250,16.0,19.0,84,0.02,,---,0.02,VWS V13.01,2013-04-19 15:58:00,
2013-04-19 12:03:00,63.7,59.1,29.16,NE,44,0.0,9.0,85,0.02,,---,0.03,VWS V13.01,2013-04-19 16:03:00,
2013-04-19 12:08:00,63.5,59.2,29.16,ENE,67,4.0,12.0,86,0.03,,---,0.04,VWS V13.01,2013-04-19 16:08:00,
2013-04-19 12:14:00,63.3,59.4,29.14,West,276,3.0,12.0,87,0.04,,---,0.05,VWS V13.01,2013-04-19 16:14:00,
2013-04-19 12:19:00,63.0,59.1,29.16,West,280,2.0,18.0,87,0.05,,---,0.06,VWS V13.01,2013-04-19 16:19:00,
2013-04-19 12:24:00,62.9,59.3,29.16,West,277,0.0,20.0,88,0.05,,---,0.06,VWS V13.01,2013-04-19 16:24:00,
2013-04-19 12:29:00,62.9,59.3,29.15,North,5,6.0,20.0,88,0.06,,---,0.07,VWS V13.01,2013-04-19 16:29:00,
2013-04-19 12:34:00,63.1,59.5,29.15,East,101,0.0,15.0,88,0.06,,---,0.07,VWS V13.01,2013-04-19 16:34:00,
2013-04-19 12:39:00,63.1,59.2,29.15,SW,236,4.0,15.0,87,0.06,,---,0.07,VWS V13.01,2013-04-19 16:39:00,
2013-04-19 12:44:00,63.2,59.3,29.14,West,263,0.0,15.0,87,0.06,,---,0.07,VWS V13.01,2013-04-19 16:44:00,
2013-04-19 12:49:00,63.2,59.6,29.13,South,188,5.0,15.0,88,0.06,,---,0.07,VWS V13.01,2013-04-19 16:49:00,
2013-04-19 12:54:00,63.1,59.5,29.13,SSW,199,5.0,21.0,88,0.06,,---,0.07,VWS V13.01,2013-04-19 16:54:00,
2013-04-19 12:59:00,63.1,59.5,29.13,WSW,248,6.0,21.0,88,0.06,,---,0.07,VWS V13.01,2013-04-19 16:59:00,
2013-04-19 13:04:00,63.2,59.9,29.12,East,100,0.0,11.0,89,0.05,,---,0.07,VWS V13.01,2013-04-19 17:04:00,
2013-04-19 13:09:00,63.3,60.0,29.12,NNE,30,12.0,15.0,89,0.05,,---,0.07,VWS V13.01,2013-04-19 17:09:00,
2013-04-19 13:14:00,63.4,59.8,29.11,SE,142,0.0,15.0,88,0.05,,---,0.07,VWS V13.01,2013-04-19 17:14:00,
2013-04-19 13:19:00,63.6,60.0,29.10,SSE,156,0.0,15.0,88,0.05,,---,0.07,VWS V13.01,2013-04-19 17:19:00,
2013-04-19 13:24:00,63.7,60.1,29.10,NW,323,2.0,15.0,88,0.05,,---,0.07,VWS V13.01,2013-04-19 17:24:00,
2013-04-19 13:29:00,63.7,60.1,29.11,WSW,237,11.0,15.0,88,0.05,,---,0.07,VWS V13.01,2013-04-19 17:29:00,
2013-04-19 13:34:00,63.5,59.9,29.12,West,263,24.0,24.0,88,0.00,,---,0.08,VWS V13.01,2013-04-19 17:34:00,
2013-04-19 13:39:00,59.6,55.1,29.15,West,268,29.0,39.0,85,0.03,,---,0.11,VWS V13.01,2013-04-19 17:39:00,
2013-04-19 13:45:00,52.6,49.2,29.20,West,263,26.0,39.0,88,0.20,,---,0.28,VWS V13.01,2013-04-19 17:45:00,
2013-04-19 13:50:00,50.7,48.2,29.20,West,279,16.0,39.0,91,0.22,,---,0.29,VWS V13.01,2013-04-19 17:50:00,
2013-04-19 13:55:00,50.5,48.3,29.20,NW,310,16.0,39.0,92,0.22,,---,0.29,VWS V13.01,2013-04-19 17:55:00,
2013-04-19 14:00:00,50.1,47.9,29.22,West,271,20.0,39.0,92,0.22,,---,0.29,VWS V13.01,2013-04-19 18:00:00,
2013-04-19 14:05:00,49.9,48.0,29.22,WNW,282,16.0,24.0,93,0.22,,---,0.30,VWS V13.01,2013-04-19 18:05:00,
2013-04-19 14:10:00,49.9,48.0,29.22,WNW,291,13.0,24.0,93,0.24,,---,0.31,VWS V13.01,2013-04-19 18:10:00,
2013-04-19 14:15:00,50.1,48.2,29.23,West,264,13.0,24.0,93,0.24,,---,0.31,VWS V13.01,2013-04-19 18:15:00,
2013-04-19 14:20:00,49.8,47.9,29.23,West,276,15.0,24.0,93,0.24,,---,0.31,VWS V13.01,2013-04-19 18:20:00,
2013-04-19 14:25:00,49.5,47.3,29.24,West,270,12.0,24.0,92,0.24,,---,0.31,VWS V13.01,2013-04-19 18:25:00,
2013-04-19 14:30:00,49.3,47.1,29.23,WNW,295,14.0,16.0,92,0.24,,---,0.31,VWS V13.01,2013-04-19 18:30:00,
2013-04-19 14:35:00,49.3,47.1,29.25,West,278,13.0,18.0,92,0.25,,---,0.32,VWS V13.01,2013-04-19 18:35:00,
2013-04-19 14:40:00,49.2,47.3,29.25,West,259,13.0,18.0,93,0.26,,---,0.33,VWS V13.01,2013-04-19 18:40:00,
2013-04-19 14:45:00,49.0,47.1,29.25,WNW,287,11.0,18.0,93,0.28,,---,0.35,VWS V13.01,2013-04-19 18:45:00,
2013-04-19 14:50:00,49.0,47.1,29.26,WNW,283,2.0,18.0,93,0.29,,---,0.36,VWS V13.01,2013-04-19 18:50:00,
2013-04-19 14:55:00,49.0,47.3,29.27,WNW,285,6.0,18.0,94,0.30,,---,0.37,VWS V13.01,2013-04-19 18:55:00,
2013-04-19 15:01:00,49.0,47.3,29.26,NW,306,4.0,5.0,94,0.31,,---,0.38,VWS V13.01,2013-04-19 19:01:00,
2013-04-19 15:06:00,48.9,47.2,29.27,WNW,283,5.0,8.0,94,0.09,,---,0.38,VWS V13.01,2013-04-19 19:06:00,
2013-04-19 15:11:00,48.8,47.2,29.28,WNW,301,8.0,14.0,94,0.10,,---,0.39,VWS V13.01,2013-04-19 19:11:00,
2013-04-19 15:16:00,48.6,46.7,29.29,NW,307,12.0,20.0,93,0.11,,---,0.41,VWS V13.01,2013-04-19 19:16:00,
2013-04-19 15:21:00,48.3,46.4,29.31,WNW,303,14.0,23.0,93,0.12,,---,0.42,VWS V13.01,2013-04-19 19:21:00,
2013-04-19 15:26:00,48.0,45.8,29.29,West,269,19.0,23.0,92,0.13,,---,0.42,VWS V13.01,2013-04-19 19:26:00,
2013-04-19 15:31:00,48.0,45.8,29.31,West,271,16.0,16.0,92,0.12,,---,0.43,VWS V13.01,2013-04-19 19:31:00,
2013-04-19 15:36:00,47.7,45.5,29.31,NW,304,8.0,19.0,92,0.12,,---,0.43,VWS V13.01,2013-04-19 19:36:00,
2013-04-19 15:41:00,47.5,45.3,29.30,WNW,286,15.0,19.0,92,0.13,,---,0.44,VWS V13.01,2013-04-19 19:41:00,
2013-04-19 15:46:00,47.3,45.1,29.30,West,278,11.0,24.0,92,0.14,,---,0.45,VWS V13.01,2013-04-19 19:46:00,
2013-04-19 15:51:00,47.2,45.0,29.30,West,274,9.0,24.0,92,0.14,,---,0.45,VWS V13.01,2013-04-19 19:51:00,
2013-04-19 15:56:00,47.3,44.8,29.32,West,277,11.0,24.0,91,0.14,,---,0.45,VWS V13.01,2013-04-19 19:56:00,
2013-04-19 16:01:00,47.3,44.8,29.32,West,279,12.0,12.0,91,0.07,,---,0.45,VWS V13.01,2013-04-19 20:01:00,
2013-04-19 16:06:00,47.4,44.6,29.31,West,279,10.0,21.0,90,0.07,,---,0.45,VWS V13.01,2013-04-19 20:06:00,
2013-04-19 16:11:00,47.4,44.6,29.31,WNW,284,20.0,22.0,90,0.07,,---,0.45,VWS V13.01,2013-04-19 20:11:00,
2013-04-19 16:17:00,47.0,43.6,29.33,West,278,9.0,22.0,88,0.07,,---,0.45,VWS V13.01,2013-04-19 20:17:00,
2013-04-19 16:22:00,47.0,43.9,29.34,WNW,296,18.0,22.0,89,0.07,,---,0.45,VWS V13.01,2013-04-19 20:22:00,
2013-04-19 16:27:00,46.7,43.6,29.34,NW,306,7.0,22.0,89,0.07,,---,0.45,VWS V13.01,2013-04-19 20:27:00,
2013-04-19 16:32:00,46.5,43.1,29.35,WNW,283,8.0,13.0,88,0.02,,---,0.45,VWS V13.01,2013-04-19 20:32:00,
2013-04-19 16:37:00,46.4,43.3,29.35,West,263,12.0,18.0,89,0.02,,---,0.45,VWS V13.01,2013-04-19 20:37:00,
2013-04-19 16:42:00,46.6,43.5,29.35,West,281,15.0,18.0,89,0.02,,---,0.45,VWS V13.01,2013-04-19 20:42:00,
2013-04-19 16:47:00,46.7,43.3,29.36,West,271,10.0,18.0,88,0.02,,---,0.45,VWS V13.01,2013-04-19 20:47:00,
2013-04-19 16:52:00,46.5,42.8,29.37,West,281,12.0,19.0,87,0.02,,---,0.45,VWS V13.01,2013-04-19 20:52:00,
2013-04-19 16:57:00,46.2,42.5,29.37,WNW,288,11.0,20.0,87,0.02,,---,0.45,VWS V13.01,2013-04-19 20:57:00,
2013-04-19 17:02:00,46.0,42.0,29.38,West,279,9.0,22.0,86,0.00,,---,0.45,VWS V13.01,2013-04-19 21:02:00,
2013-04-19 17:07:00,45.9,41.7,29.38,West,259,13.0,24.0,85,0.00,,---,0.45,VWS V13.01,2013-04-19 21:07:00,
2013-04-19 17:12:00,45.8,41.2,29.39,West,275,13.0,24.0,84,0.00,,---,0.45,VWS V13.01,2013-04-19 21:12:00,
2013-04-19 17:17:00,45.6,40.7,29.39,West,271,12.0,24.0,83,0.00,,---,0.45,VWS V13.01,2013-04-19 21:17:00,
2013-04-19 17:22:00,45.6,40.4,29.39,WSW,256,15.0,24.0,82,0.00,,---,0.45,VWS V13.01,2013-04-19 21:22:00,
2013-04-19 17:27:00,45.4,39.9,29.40,West,265,13.0,24.0,81,0.00,,---,0.45,VWS V13.01,2013-04-19 21:27:00,
2013-04-19 17:32:00,45.4,40.2,29.41,WNW,284,13.0,15.0,82,0.00,,---,0.45,VWS V13.01,2013-04-19 21:32:00,
2013-04-19 17:38:00,45.3,39.8,29.42,WSW,254,9.0,19.0,81,0.00,,---,0.45,VWS V13.01,2013-04-19 21:38:00,
2013-04-19 17:43:00,45.4,39.6,29.42,West,265,8.0,19.0,80,0.00,,---,0.45,VWS V13.01,2013-04-19 21:43:00,
2013-04-19 17:48:00,45.4,39.9,29.42,WNW,287,9.0,19.0,81,0.00,,---,0.45,VWS V13.01,2013-04-19 21:48:00,
2013-04-19 18:23:00,45.3,38.2,29.44,West,278,8.0,21.0,76,0.00,,---,0.45,VWS V13.01,2013-04-19 22:23:00,
2013-04-19 18:28:00,45.2,38.4,29.45,WNW,285,15.0,21.0,77,0.00,,---,0.45,VWS V13.01,2013-04-19 22:28:00,
2013-04-19 18:33:00,45.2,38.1,29.45,West,272,11.0,24.0,76,0.00,,---,0.45,VWS V13.01,2013-04-19 22:33:00,
2013-04-19 18:38:00,45.2,38.1,29.45,WNW,299,20.0,24.0,76,0.00,,---,0.45,VWS V13.01,2013-04-19 22:38:00,
2013-04-19 18:43:00,45.1,38.0,29.45,WNW,288,10.0,24.0,76,0.00,,---,0.45,VWS V13.01,2013-04-19 22:43:00,
2013-04-19 18:48:00,45.0,37.6,29.45,West,279,10.0,24.0,75,0.00,,---,0.45,VWS V13.01,2013-04-19 22:48:00,
2013-04-19 18:54:00,45.0,38.2,29.45,WNW,290,15.0,24.0,77,0.00,,---,0.45,VWS V13.01,2013-04-19 22:54:00,
2013-04-19 18:59:00,44.9,36.8,29.45,WNW,296,14.0,24.0,73,0.00,,---,0.45,VWS V13.01,2013-04-19 22:59:00,
2013-04-19 19:04:00,44.6,36.5,29.46,WNW,286,9.0,19.0,73,0.00,,---,0.45,VWS V13.01,2013-04-19 23:04:00,
2013-04-19 19:09:00,44.5,36.7,29.47,WNW,282,13.0,21.0,74,0.00,,---,0.45,VWS V13.01,2013-04-19 23:09:00,
2013-04-19 19:14:00,44.3,36.9,29.47,WNW,295,7.0,23.0,75,0.00,,---,0.45,VWS V13.01,2013-04-19 23:14:00,
2013-04-19 19:19:00,44.3,36.9,29.47,West,281,10.0,23.0,75,0.00,,---,0.45,VWS V13.01,2013-04-19 23:19:00,
2013-04-19 19:24:00,44.2,36.8,29.47,WNW,287,9.0,23.0,75,0.00,,---,0.45,VWS V13.01,2013-04-19 23:24:00,
2013-04-19 19:29:00,44.2,36.5,29.48,West,271,7.0,23.0,74,0.00,,---,0.45,VWS V13.01,2013-04-19 23:29:00,
2013-04-19 19:34:00,44.1,36.0,29.49,West,271,11.0,19.0,73,0.00,,---,0.45,VWS V13.01,2013-04-19 23:34:00,
2013-04-19 19:39:00,44.1,36.0,29.49,West,281,8.0,19.0,73,0.00,,---,0.45,VWS V13.01,2013-04-19 23:39:00,
2013-04-19 19:44:00,44.0,35.9,29.48,West,272,11.0,19.0,73,0.00,,---,0.45,VWS V13.01,2013-04-19 23:44:00,
2013-04-19 19:49:00,44.0,35.2,29.48,West,274,12.0,20.0,71,0.00,,---,0.45,VWS V13.01,2013-04-19 23:49:00,
2013-04-19 19:54:00,43.9,35.1,29.49,West,262,7.0,20.0,71,0.00,,---,0.45,VWS V13.01,2013-04-19 23:54:00,
2013-04-19 19:59:00,43.8,34.7,29.49,West,262,9.0,20.0,70,0.00,,---,0.45,VWS V13.01,2013-04-19 23:59:00,
2013-04-19 20:04:00,43.8,35.0,29.49,West,274,7.0,18.0,71,0.00,,---,0.45,VWS V13.01,2013-04-20 00:04:00,
2013-04-19 20:09:00,43.8,34.7,29.50,WNW,286,14.0,18.0,70,0.00,,---,0.45,VWS V13.01,2013-04-20 00:09:00,
2013-04-19 20:15:00,43.7,35.3,29.50,WNW,284,11.0,18.0,72,0.00,,---,0.45,VWS V13.01,2013-04-20 00:15:00,
2013-04-19 20:20:00,43.6,35.2,29.50,WSW,257,8.0,19.0,72,0.00,,---,0.45,VWS V13.01,2013-04-20 00:20:00,
2013-04-19 20:25:00,43.6,34.8,29.50,West,269,3.0,19.0,71,0.00,,---,0.45,VWS V13.01,2013-04-20 00:25:00,
2013-04-19 20:30:00,43.5,34.7,29.50,WSW,257,11.0,21.0,71,0.00,,---,0.45,VWS V13.01,2013-04-20 00:30:00,
2013-04-19 20:35:00,43.5,34.7,29.51,WNW,290,11.0,21.0,71,0.00,,---,0.45,VWS V13.01,2013-04-20 00:35:00,
2013-04-19 20:40:00,43.4,34.6,29.51,WNW,288,14.0,21.0,71,0.00,,---,0.45,VWS V13.01,2013-04-20 00:40:00,
2013-04-19 20:45:00,43.3,33.8,29.52,WNW,288,14.0,23.0,69,0.00,,---,0.45,VWS V13.01,2013-04-20 00:45:00,
2013-04-19 20:50:00,43.3,33.1,29.52,NW,304,23.0,26.0,67,0.00,,---,0.45,VWS V13.01,2013-04-20 00:50:00,
2013-04-19 20:55:00,43.2,33.7,29.53,WNW,282,16.0,27.0,69,0.00,,---,0.45,VWS V13.01,2013-04-20 00:55:00,
2013-04-19 21:00:00,42.8,33.3,29.53,NW,311,13.0,15.0,69,0.00,,---,0.45,VWS V13.01,2013-04-20 01:00:00,
2013-04-19 21:05:00,42.6,32.4,29.54,West,274,11.0,25.0,67,0.00,,---,0.45,VWS V13.01,2013-04-20 01:05:00,
2013-04-19 21:10:00,42.4,32.6,29.54,SW,233,18.0,26.0,68,0.00,,---,0.45,VWS V13.01,2013-04-20 01:10:00,
2013-04-19 21:15:00,42.3,32.1,29.55,West,264,10.0,26.0,67,0.00,,---,0.45,VWS V13.01,2013-04-20 01:15:00,
2013-04-19 21:20:00,42.3,32.1,29.55,West,262,12.0,26.0,67,0.00,,---,0.45,VWS V13.01,2013-04-20 01:20:00,
2013-04-19 21:25:00,42.2,32.0,29.55,West,267,12.0,26.0,67,0.00,,---,0.45,VWS V13.01,2013-04-20 01:25:00,
2013-04-19 21:30:00,42.0,33.3,29.55,WNW,282,11.0,12.0,71,0.00,,---,0.45,VWS V13.01,2013-04-20 01:30:00,
2013-04-19 21:35:00,42.0,32.6,29.56,West,268,13.0,16.0,69,0.00,,---,0.45,VWS V13.01,2013-04-20 01:35:00,
2013-04-19 21:41:00,41.8,33.1,29.56,West,271,8.0,16.0,71,0.00,,---,0.45,VWS V13.01,2013-04-20 01:41:00,
2013-04-19 21:46:00,41.7,33.3,29.57,West,276,7.0,16.0,72,0.00,,---,0.45,VWS V13.01,2013-04-20 01:46:00,
2013-04-19 21:51:00,41.6,33.3,29.57,West,279,8.0,16.0,72,0.00,,---,0.45,VWS V13.01,2013-04-20 01:51:00,
2013-04-19 21:56:00,41.5,33.2,29.57,West,281,10.0,16.0,72,0.00,,---,0.45,VWS V13.01,2013-04-20 01:56:00,
2013-04-19 22:01:00,41.4,32.7,29.58,WNW,283,19.0,19.0,71,0.00,,---,0.45,VWS V13.01,2013-04-20 02:01:00,
2013-04-19 22:06:00,41.3,32.6,29.58,West,272,13.0,20.0,71,0.00,,---,0.45,VWS V13.01,2013-04-20 02:06:00,
2013-04-19 22:11:00,41.1,32.4,29.59,WNW,292,10.0,20.0,71,0.00,,---,0.45,VWS V13.01,2013-04-20 02:11:00,
2013-04-19 22:16:00,41.1,32.8,29.59,West,277,9.0,20.0,72,0.00,,---,0.45,VWS V13.01,2013-04-20 02:16:00,
2013-04-19 22:21:00,40.9,32.6,29.59,WNW,286,6.0,20.0,72,0.00,,---,0.45,VWS V13.01,2013-04-20 02:21:00,
2013-04-19 22:26:00,40.9,32.9,29.59,WNW,288,8.0,20.0,73,0.00,,---,0.45,VWS V13.01,2013-04-20 02:26:00,
2013-04-19 22:31:00,40.8,32.5,29.60,WNW,284,11.0,15.0,72,0.00,,---,0.45,VWS V13.01,2013-04-20 02:31:00,
2013-04-19 22:36:00,40.7,32.7,29.61,West,280,5.0,15.0,73,0.00,,---,0.45,VWS V13.01,2013-04-20 02:36:00,
2013-04-19 22:41:00,40.7,33.1,29.60,WNW,290,4.0,15.0,74,0.00,,---,0.45,VWS V13.01,2013-04-20 02:41:00,
2013-04-19 22:46:00,40.6,32.6,29.60,WNW,286,2.0,15.0,73,0.00,,---,0.45,VWS V13.01,2013-04-20 02:46:00,
2013-04-19 22:51:00,40.6,33.0,29.60,West,280,9.0,15.0,74,0.00,,---,0.45,VWS V13.01,2013-04-20 02:51:00,
2013-04-19 22:57:00,40.6,32.6,29.60,West,281,6.0,15.0,73,0.00,,---,0.45,VWS V13.01,2013-04-20 02:57:00,
2013-04-19 23:02:00,40.5,32.5,29.60,WNW,298,10.0,12.0,73,0.00,,---,0.45,VWS V13.01,2013-04-20 03:02:00,
2013-04-19 23:07:00,40.5,32.9,29.61,WNW,284,10.0,13.0,74,0.00,,---,0.45,VWS V13.01,2013-04-20 03:07:00,
2013-04-19 23:12:00,40.4,32.8,29.60,WNW,290,12.0,14.0,74,0.00,,---,0.45,VWS V13.01,2013-04-20 03:12:00,
2013-04-19 23:17:00,40.3,33.0,29.61,West,281,8.0,16.0,75,0.00,,---,0.45,VWS V13.01,2013-04-20 03:17:00,
2013-04-19 23:22:00,40.0,32.7,29.61,SW,230,11.0,16.0,75,0.00,,---,0.45,VWS V13.01,2013-04-20 03:22:00,
2013-04-19 23:27:00,39.8,32.9,29.61,West,271,10.0,19.0,76,0.00,,---,0.45,VWS V13.01,2013-04-20 03:27:00,
2013-04-19 23:32:00,39.8,32.5,29.62,West,265,7.0,16.0,75,0.00,,---,0.45,VWS V13.01,2013-04-20 03:32:00,
2013-04-19 23:38:00,39.7,32.4,29.62,West,265,8.0,16.0,75,0.00,,---,0.45,VWS V13.01,2013-04-20 03:38:00,
2013-04-19 23:43:00,39.6,32.3,29.62,WSW,250,12.0,16.0,75,0.00,,---,0.45,VWS V13.01,2013-04-20 03:43:00,
2013-04-19 23:48:00,39.6,32.7,29.62,West,274,11.0,18.0,76,0.01,,---,0.46,VWS V13.01,2013-04-20 03:48:00,
2013-04-19 23:53:00,39.5,32.2,29.62,West,263,13.0,22.0,75,0.01,,---,0.46,VWS V13.01,2013-04-20 03:53:00,
2013-04-19 23:58:00,39.5,31.6,29.62,WNW,286,15.0,25.0,73,0.01,,---,0.46,VWS V13.01,2013-04-20 03:58:00,